Погода в Соловьевске

Погода в Соловьевске : погода сейчас, прогноз погоды и архив. Всё, что Вы хотите узнать о погоде в Соловьевске!

Поиск расширенной информации на нашем сайте:

Другие новости

Новости СМИ2

Главная страница сайта

Новости сайта

02.10.2013

Напоминаем, что на нашем новом сайте вы можете получить высокодетализированные прогнозы погоды по пунктам России, СНГ и мира (включающие важные для авиации метеовеличины, такие как направление и скорость ветра, видимость, явления погоды, количество и форма облачности, нижняя и верхняя граница облачности), а также ознакомиться с разнообразными материалами по авиационной метеорологии и подборкой полезных ссылок на эту тему.

Сайт Метеоцентр.Азия посвящён разработке технологий оптимизации авиаметеорологического обслуживания, включая проектирование и перспективное создание нескольких автоматизированных авиаметеорологических систем:
- система выпуска высокодетальных прогностических карт явлений погоды для нижнего воздушного пространства по России и ближнему зарубежью;
- система верификации прогнозов TAF (выпускаемых синоптиками официальных АМСГ РФ и ближнего зарубежья) и AUTOTAF (выпускаемых сайтом Метеоцентр.Азия) - выявление ошибок, онлайн-сопоставление с фактической погодой METAR, автоматическое внесение коррективов в прогнозы при резком отклонении фактической погоды от прогноза, подсчёт оправдываемости прогнозов по элементам и в целом;
- система обработки, анализа и отображения авиаметеорологической информации для применения провайдерами метеорологической информации.

Рекомендуем: Установка автосигнализации STAR LINE B-9.Сигнализация.

Погода в Соловьевске - сегодня

Время (UTC), дата Ветер
(°,м/с) 
Видим.   Явления Облачность Т
(°С)
Тd
(°С)
f(%) Тe
(°С)
Pmin
(гПа)
dP
(гПа)
Po
(мм)
O2
(г/м3)
Тmin Tmax R s Состояние
почвы
15 11.01.17 260 (З) 20000 м    ясно 
-29.4 -32.6 74 -30  1032.6  0.2  711  323           
18 11.01.17 330 (СЗ) 20000 м    ясно 
-33.2 -36.8 70 -34  1034.1  711  328           
21 11.01.17 тихо ()   20000 м    ясно 
-33.6 -37.2 70 -34  1034  -0.2  710  328           
03 12.01.17 310 (СЗ) 20000 м    ясно 
-26 -29.1 75 -31  1031.9  0.4  711  318           
09 12.01.17 330 (СЗ) 5{11}  20000 м    ясно 
-22.1 -28.2 58 -29  1029.4  0.1  710  313           
15 12.01.17 320 (СЗ) 20000 м    3/0 верхняя 
[Ci sp]
-24.9 -29.2 67 -30  1031  710  317           
18 12.01.17 320 (СЗ) 7{10}  20000 м    6/0 верхняя 
[Ci sp]
-22.5 -27.4 64 -31  1029.5  -0.6  710  313           
21 12.01.17 320 (СЗ) 3{11}  20000 м    3/0 верхняя 
[Ci sp]
-23.7 -27.9 68 -28  1030.6  0.7  711  315           
09 13.01.17 320 (СЗ) 4{13}  20000 м    6/0 верхняя 
[Ci sp]
-16.5 -22.3 61 -21  1030.9  0.7  712  307           
15 13.01.17 340 (С) 20000 м    ясно 
-23.2 -27.1 70 -24  1036.3  1.2  715  316           
18 13.01.17 270 (З) 20000 м    ясно 
-25.7 -28.9 75 -26  1038.2  715  320           
21 13.01.17 300 (СЗ) 20000 м    ясно 
-27.8 -30.8 76 -28  1040.1  716  323           
03 14.01.17 160 (Ю) 20000 м    ясно 
-23 -26.8 71 -26  1041.4  1.3  718  318  -30.5         
09 14.01.17 150 (ЮВ) 20000 м    ясно 
-22.5 -26.3 71 -27  1042.3  719  317           
15 14.01.17 140 (ЮВ) 20000 м    ясно 
-26.4 -29 79 -32  1044.8  0.1  720  323           
18 14.01.17 110 (В) 20000 м    ясно 
-26.4 -29 79 -30  1044.6  -0.2  719  323           
21 14.01.17 тихо ()   20000 м    6/0 верхняя 
[Ci sp]
-30.9 -34.3 72 -31  1046  -0.2  719  329           
03 15.01.17 360 (С) 20000 м    4/0 верхняя 
[Ci sp]
-25.9 -28.9 76 -26  1043.6  0.1  719  322  -32.6         
09 15.01.17 030 (СВ) 20000 м    8/0 верхняя 
[Ci sp]
-23.3 -26.1 78 -24  1041.3  0.1  718  318           
15 15.01.17 тихо ()   20000 м    4/0 верхняя 
[Ci sp]
-29.1 -32.2 74 -29  1042.6  -0.5  717  325           
18 15.01.17 270 (З) 20000 м    5/0 верхняя 
[Ci sp]
-30.9 -34.3 72 -32  1043.3  717  328           
21 15.01.17 280 (З) 20000 м    10/0 верхняя 
[Ci sp]
-30.5 -33.8 73 -31  1042.3  -0.7  717  327           
03 16.01.17 300 (СЗ) 20000 м    8/0 верхняя 
[Ci sp]
-25.1 -27.9 77 -28  1040.4  0.1  717  320           
09 16.01.17 360 (С) 20000 м    ясно 
-23 -26.1 76 -26  1037.5  -0.2  715  316           
15 16.01.17 270 (З) 20000 м    ясно 
-30.7 -34 73 -31  1039.8  -0.5  715  327           
Время (UTC), дата Ветер
(°,м/с) 
Видим.   Явления Облачность Т
(°С)
Тd
(°С)
f(%) Тe
(°С)
Pmin
(гПа)
dP
(гПа)
Po
(мм)
O2
(г/м3)
Тmin Tmax R s Состояние
почвы

Для получения пояснительной информации подведите курсор к названию столбца.

ПОГОДА в Соловьевске - архив

Всё, что Вы хотите узнать о погоде в Соловьевске - удобно и подробно!

Выберите нужную дату (начиная с 1 января 2015* года) и нажмите кнопку "Найти".
Будут отображены архивные сводки погоды по пункту Соловьевск, начиная с указанной даты.


Отображать данные в формате CSV (для использования в таблицах Excel)


Внимание! Наш архив погоды предназначен исключительно для личного некоммерческого использования в познавательных целях. Если Вам необходимы официальные справки о состоянии погоды (для производственных, юридических, коммерческих и т.п. целей), обращайтесь в органы Росгидромета.

*Примечание: данная дата относится к архиву по метеостанциям СССР (Россия, СНГ, Балтия).
Архив по метеостанциям Зарубежной Европы и Азии (кроме Китая) хранится 10 дней, по другим регионам земного шара (Китай, Африка, Америка, Австралия, Океания) - 1 день.

Соловьевск - район местоположения метеостанции


Название, широта, долгота, высота метеостанции:
Соловьевск 49.9°ш. 115.8°д. 623 м над ур. моря [Российская Федерация]

Дополнительная информация

В oтличие oт бoльшинства пoгoдных сайтoв мы публикуем пoдрoбную метеoинфoрмацию в детальнoм прoфессиoнальнoм фoрмате.

Характеристики температуры и влажнoсти вoздуха измеряются на высoте 2 м в тени вдали oт зданий и деревьев.
Скoрoсть ветра измеряется на высoте 10 м (на урoвне рoста челoвека скoрoсть ветра ниже в 1.5-2 раза). Если метеoстанция нахoдится в гoрoде или в лесу, тo скoрoсть ветра занижена на 2-4 м/с пo сравнению с oткрытым местoм. Скoрoсть ветра над акватoриями крупных рек и oзёр, а также на вершинах хoлмoв на 2-5 м/с выше, чем в oбычных услoвиях.
Атмoсфернoе давление в разных тoчках местнoсти мoжет значительнo oтличаться oт давления на метеoстанции, в зависимoсти oт услoвий рельефа (при пoдъёме на 10 м давление пoнижается примернo на 1 мм рт.ст.).